Flag Weather past 2 weeks in Melbourne, Victoria, Australia

Now
50 °F

Passing clouds.


Feels Like: 47 °F
Forecast: 51 / 79 °F
Wind: 8 mph from Northwest

Location: Melbourne Airport

Current Time: Nov 29, 2014 at 2:07:42 AM

Latest Report: Nov 29, 2014 at 1:30 AM


Visibility: N/A

Pressure: 30.07 "Hg

Humidity: 94%

Dew point: 48 °F

Location of MelbourneLocation

Historic Weather in Melbourne — Graph

°F

Melbourne temperature yesterday

Maximum temperature yesterday: 70 °F (at 3:00 PM)
Minimum temperature yesterday: 50 °F (at 2:30 AM)
Average temperature yesterday: 58 °F

Past Weeks' High & Low Weather Summary

 TemperatureHumidityPressure
High88 °F (Nov 20, 2:00 PM)100% (Nov 15, 10:30 PM)30.30 "Hg (Nov 15, 10:30 PM)
Low46 °F (Nov 18, 4:00 AM)14% (Nov 14, 5:00 AM)29.62 "Hg (Nov 16, 4:30 AM)
Average62 °F62%29.96 "Hg
* Reported Midnight between Nov 13 and Nov 14 — Nov 29 12:30 AM, Melbourne, Weather by CustomWeather, © 2014

Note: Actual official high and low records may vary slightly from our data, if they occured in-between our weather recording intervals... More about our weather records

Advertising

Melbourne weather history for previous 24 hours

 ConditionsComfort  
Time TempWeatherWind HumidityBarometerVisibility
12:30 AM
Nov 29
50 °FPassing clouds.6 mph94%30.09 "HgN/A
12:00 AM52 °FPassing clouds.8 mph88%30.09 "HgN/A
11:30 PM
Nov 28
52 °FPassing clouds.6 mph88%30.12 "HgN/A
11:00 PM54 °FClear.6 mph82%30.12 "Hg10 mi
10:30 PM54 °FClear.8 mph82%30.12 "Hg10 mi
10:00 PM55 °FClear.7 mph77%30.12 "Hg10 mi
9:30 PM57 °FClear.9 mph72%30.12 "Hg10 mi
9:00 PM57 °FClear.8 mph77%30.12 "Hg10 mi
8:30 PM57 °FClear.10 mph77%30.12 "Hg10 mi
8:00 PM59 °FSunny.16 mph72%30.09 "Hg10 mi
7:30 PM61 °FSunny.15 mph68%30.09 "Hg10 mi
7:00 PM63 °FSunny.13 mph68%30.09 "Hg10 mi
6:30 PM64 °FSunny.12 mph60%30.09 "Hg10 mi
6:00 PM64 °FPassing clouds.13 mph60%30.09 "HgN/A
5:30 PM64 °FPassing clouds.12 mph60%30.09 "HgN/A
5:00 PM66 °FPassing clouds.15 mph56%30.09 "HgN/A
4:30 PM68 °FPassing clouds.14 mph53%30.09 "HgN/A
4:00 PM68 °FPassing clouds.13 mph49%30.09 "HgN/A
3:30 PM68 °FPassing clouds.15 mph49%30.12 "HgN/A
3:00 PM70 °FPassing clouds.9 mph46%30.12 "HgN/A
2:00 PM68 °FSunny.14 mph49%30.15 "Hg10 mi
1:30 PM68 °FPassing clouds.9 mph49%30.15 "HgN/A
1:00 PM68 °FPassing clouds.8 mph49%30.18 "HgN/A
12:30 PM64 °FPassing clouds.6 mph56%30.18 "HgN/A
12:00 PM64 °FPassing clouds.6 mph56%30.18 "HgN/A
11:30 AM63 °FPassing clouds.7 mph59%30.18 "HgN/A
11:00 AM61 °FScattered clouds.8 mph59%30.21 "HgN/A
10:30 AM61 °FPartly sunny.9 mph59%30.21 "HgN/A
10:00 AM59 °FPartly sunny.7 mph68%30.21 "HgN/A
9:30 AM57 °FPartly sunny.6 mph72%30.24 "HgN/A
9:00 AM57 °FOvercast.6 mph72%30.24 "HgN/A
8:30 AM55 °FPartly sunny.5 mph77%30.24 "HgN/A
8:00 AM55 °FMore clouds than sun.7 mph77%30.24 "HgN/A
7:30 AM55 °FPartly sunny.No wind77%30.24 "HgN/A
7:00 AM54 °FPartly sunny.3 mph82%30.21 "HgN/A
6:30 AM54 °FPartly sunny.5 mph82%30.21 "HgN/A
6:00 AM54 °FPartly sunny.6 mph82%30.21 "HgN/A
5:30 AM54 °FPassing clouds.3 mph82%30.21 "HgN/A
5:00 AM54 °FPassing clouds.1 mph82%30.18 "HgN/A
4:30 AM54 °FPassing clouds.7 mph82%30.18 "HgN/A
4:00 AM52 °FPassing clouds.6 mph88%30.18 "HgN/A
3:30 AM52 °FPassing clouds.No wind88%30.18 "HgN/A
3:00 AM50 °FPassing clouds.5 mph94%30.18 "HgN/A
2:30 AM50 °FPassing clouds.5 mph88%30.18 "HgN/A
2:00 AM52 °FPassing clouds.5 mph88%30.18 "HgN/A
Weather by CustomWeather, © 2014

See weather overviewHow to use our weather pages